Miscellaneous Local Product
Issued by NWS North Platte, NE

Current Version | Previous Version | Text Only | Print | Product List | Glossary On
Versions: 1 2 3 4 5 6 7 8 9 10 11 12 13 14 15 16 17 18 19 20 21 22 23 24 25 26 27 28 29 30 31 32 33 34 35 36 37 38 39 40 41 42 43 44 45 46 47 48 49 50
372
AXUS43 KLBF 292010
MISLBF


WESTERN AND NORTH CENTRAL NEBRASKA HOURLY WEATHER ROUNDUP
NATIONAL WEATHER SERVICE NORTH PLATTE NE
300 PM CDT THU SEP 29 2016

NOTE: "FAIR" INDICATES FEW OR NO CLOUDS BELOW 12,000 FEET WITH NO
SIGNIFICANT WEATHER AND/OR OBSTRUCTIONS TO VISIBILITY.

NOTE: STATIONS NOT REPORTING VARIABLES SUCH AS SKY/WEATHER OR
PRESSURE ARE PROVIDED BY RAWS AND APRS NETWORKS AND ARE NOT UNDER
NATIONAL WEATHER SERVICE QUALITY CONTROL.

...OBSERVATIONS IN AND NEAR THE EASTERN PANHANDLE OF NEBRASKA...

CITY           SKY/WX    TMP DP  RH WIND       PRES   REMARKS
PINE RIDGE     SUNNY     81  42  25 S13       30.24F
CHADRON        SUNNY     81  42  25 S25G32    30.21F
ALLIANCE       SUNNY     76  42  29 S22G30    30.29F
SIDNEY         SUNNY     78  43  28 SE25G35   30.30F
CRESCENT LAKE    N/A     74  42  31 S12G20      N/A
$$

...OBSERVATIONS IN NORTHERN NEBRASKA AND FAR SOUTHERN SOUTH DAKOTA...

CITY           SKY/WX    TMP DP  RH WIND       PRES   REMARKS
WINNER         FAIR      73  44  35 S15       30.33F
VALENTINE      SUNNY     73  40  30 S9G21     30.32F
THEDFORD       SUNNY     74  43  33 SE10G17   30.35F
AINSWORTH      SUNNY     70  41  34 S12       30.35F
O`NEILL        SUNNY     68  42  39 S6        30.39F
ORD            SUNNY     68  41  37 E8        30.36F
BROKEN BOW     SUNNY     68  42  38 S8        30.36F
VALENTINE NWR    N/A     72  43  34 S9G16       N/A
BUTTE            N/A     65  46  50 E8G18       N/A
HALSEY           N/A     71  41  34 SE7         N/A
EWING            N/A     69  48  47 SE3         N/A
$$

...OBSERVATIONS IN SOUTHWEST NEBRASKA AND FAR NORTHEAST COLORADO...

CITY           SKY/WX    TMP DP  RH WIND       PRES   REMARKS
HOLYOKE        FAIR      79  43  27 SE16G26   30.31F
IMPERIAL       SUNNY     74  40  29 SE16G25   30.33F
OGALLALA       SUNNY     76  40  27 SE15      30.32F
NORTH PLATTE   SUNNY     74  41  30 SE8G17    30.34F
MCCOOK         SUNNY     73  43  33 SE12      30.35F
LEXINGTON      SUNNY     69  41  36 SE6       30.36F
STAPLETON        N/A     72  44  36 CALM        N/A
GOTHENBURG       N/A     67  40  38 SE7         N/A
CALLAWAY         N/A     69  47  45 SE9         N/A
$$

...OBSERVATIONS IN CENTRAL LINCOLN COUNTY AREA...

CITY           SKY/WX    TMP DP  RH WIND       PRES   REMARKS
N.P. AIRPORT   SUNNY     74  41  30 SE8G17    30.34F
N.P. DOWNTOWN    N/A     72  44  36 SE3         N/A
N.P. SOUTHEAST   N/A     72  42  34 S6G13       N/A
N.P. HILLCREST   N/A     71  43  36 SE8G17      N/A
$$

...SOME OBSERVATIONS FROM AROUND THE REGION...

CITY           SKY/WX    TMP DP  RH WIND       PRES   REMARKS
DENVER         MOSUNNY   82  37  20 NE13      30.27F
LARAMIE        CLOUDY    72  33  24 VRB7      30.38F
CHEYENNE       SUNNY     74  36  25 SE10      30.34F
SCOTTSBLUFF    SUNNY     80  45  28 S18G28    30.25F
RAPID CITY     SUNNY     77  43  29 SE15G23   30.22F
BISMARCK       SUNNY     70  45  40 SE20G26   30.30F
PIERRE         SUNNY     72  43  35 SE20G26   30.29F
SIOUX FALLS    MOSUNNY   67  48  50 E6        30.40F
OMAHA          MOSUNNY   71  48  43 NE7       30.37F
GRAND ISLAND   SUNNY     66  44  45 CALM      30.39F
KANSAS CITY    MOSUNNY   71  48  43 N12       30.32F
WICHITA        MOSUNNY   71  49  45 NW8       30.35F
OKLAHOMA CITY  MOSUNNY   72  49  44 N13G18    30.31F
DALLAS         MOSUNNY   79  48  33 N14G25    30.23F
AMARILLO       MOSUNNY   75  46  35 VRB7      30.38F
DODGE CITY     SUNNY     73  37  27 E8        30.37F
HAYS           SUNNY     70  41  35 E6        30.37F
GOODLAND       SUNNY     74  42  31 S16G24    30.34F
$$




USA.gov is the U.S. government's official web portal to all federal, state and local government web resources and services.